Weather History for Crane Lake, MN

Change the Weather History Date:

Wednesday, July 17, 2013

  Actual Average Record
Temperature  
Mean Temperature 69 °F -  
Max Temperature 78 °F 76 °F 93 °F (2005)
Min Temperature 60 °F 54 °F 42 °F (2014)
Cooling Degree Days 4    
Growing Degree Days 19 (Base 50)    
Moisture  
Dew Point 65 °F    
Average Humidity 88    
Maximum Humidity 94    
Minimum Humidity 73    
Precipitation  
Precipitation 0.05 in - - ()
Sea Level Pressure  
Sea Level Pressure 30.19 in    
Wind  
Wind Speed 0 mph (NNW)    
Max Wind Speed 6 mph    
Max Gust Speed -    
Visibility 9 miles    
Events Rain , Thunderstorm    
Averages and records for this station are not official NWS values.
T = Trace of Precipitation, MM = Missing Value Source: NWS Daily Summary

Daily Weather History Graph

Daily Weather History Graph

Search for Another Location

Airport:

Trip Planner

Search our weather history database for the weather conditions in past years. The results will help you decide how hot, cold, wet, or windy it might be!

Date:

Astronomy

Jul. 17, 2013 Rise Set
Actual Time 5:27 AM CDT 9:04 PM CDT
Civil Twilight 4:48 AM CDT 9:43 PM CDT
Nautical Twilight 3:55 AM CDT 10:35 PM CDT
Astronomical Twilight 2:41 AM CDT 11:48 PM CDT
Moon 3:47 PM CDT (7/17) 12:44 AM CDT (7/17)
Length of Visible Light 16h 55m
Length of Day
15h 36m
Waxing Gibbous, 67% of the Moon is Illuminated
Jul 17
Waxing Gibbous
Jul 22
Full
Jul 29
Last Quarter
Aug 6
New
Aug 14
First Quarter

Hourly Weather History & Observations

Time (CDT) Temp. Dew Point Humidity Pressure Visibility Wind Dir Wind Speed Gust Speed Precip Events Conditions
12:13 AM 68.0 °F 64.4 °F 88% 30.18 in 10.0 mi Calm Calm - N/A Rain Light Rain
12:33 AM 66.2 °F 64.4 °F 94% 30.18 in 7.0 mi Calm Calm - N/A   Unknown
12:54 AM 66.2 °F 64.4 °F 94% 30.18 in 7.0 mi Calm Calm - N/A   Mostly Cloudy
1:13 AM 64.4 °F 62.6 °F 94% 30.18 in 5.0 mi Calm Calm - N/A   Scattered Clouds
1:34 AM 64.4 °F 62.6 °F 94% 30.18 in 5.0 mi Calm Calm - N/A   Scattered Clouds
1:54 AM 64.4 °F 60.8 °F 88% 30.19 in 1.2 mi Calm Calm - N/A   Mostly Cloudy
2:13 AM 62.6 °F 60.8 °F 94% 30.18 in - Calm Calm - N/A   Scattered Clouds
2:33 AM 62.6 °F 60.8 °F 94% 30.19 in 4.0 mi Calm Calm - N/A   Scattered Clouds
2:54 AM 62.6 °F 60.8 °F 94% 30.19 in 5.0 mi Calm Calm - N/A   Mostly Cloudy
3:13 AM 62.6 °F 60.8 °F 94% 30.19 in 5.0 mi Calm Calm - N/A   Mostly Cloudy
3:33 AM 62.6 °F 60.8 °F 94% 30.18 in 3.0 mi Calm Calm - N/A   Overcast
3:53 AM 62.6 °F 60.8 °F 94% 30.19 in 5.0 mi Calm Calm - N/A   Overcast
4:13 AM 62.6 °F 60.8 °F 94% 30.19 in 5.0 mi Calm Calm - N/A   Overcast
4:34 AM 64.4 °F 62.6 °F 94% 30.21 in 10.0 mi NNW 3.5 mph - N/A   Overcast
4:53 AM 64.4 °F 62.6 °F 94% 30.21 in 10.0 mi Calm Calm - N/A   Overcast
5:13 AM 64.4 °F 62.6 °F 94% 30.20 in 7.0 mi Calm Calm - N/A Thunderstorm Drizzle
5:34 AM 64.4 °F 62.6 °F 94% 30.20 in 5.0 mi Calm Calm - N/A Rain , Thunderstorm Light Thunderstorms and Rain
5:53 AM 64.4 °F 62.6 °F 94% 30.21 in 7.0 mi Calm Calm - N/A   Overcast
6:14 AM 64.4 °F 62.6 °F 94% 30.22 in 10.0 mi Calm Calm - N/A   Overcast
6:33 AM 64.4 °F 62.6 °F 94% 30.22 in 10.0 mi Calm Calm - N/A   Mostly Cloudy
6:53 AM 64.4 °F 62.6 °F 94% 30.21 in 10.0 mi Calm Calm - N/A   Scattered Clouds
7:13 AM 68.0 °F 66.2 °F 94% 30.22 in 10.0 mi Calm Calm - N/A   Scattered Clouds
7:33 AM 68.0 °F 66.2 °F 94% 30.21 in 10.0 mi Calm Calm - N/A   Scattered Clouds
7:53 AM 68.0 °F 66.2 °F 94% 30.22 in 10.0 mi Calm Calm - N/A   Overcast
8:13 AM 69.8 °F 66.2 °F 88% 30.23 in 10.0 mi Calm Calm - N/A   Overcast
8:33 AM 68.0 °F 66.2 °F 94% 30.24 in 10.0 mi Calm Calm - N/A   Mostly Cloudy
8:53 AM 69.8 °F 66.2 °F 88% 30.24 in 10.0 mi Calm Calm - N/A   Scattered Clouds
9:13 AM 69.8 °F 66.2 °F 88% 30.24 in 10.0 mi Calm Calm - N/A   Mostly Cloudy
9:34 AM 66.2 °F 64.4 °F 94% 30.23 in 2.0 mi Calm Calm - 0.05 in Rain , Thunderstorm Light Thunderstorms and Rain
9:53 AM 68.0 °F 66.2 °F 94% 30.23 in 10.0 mi Calm Calm - 0.05 in   Scattered Clouds
10:13 AM 71.6 °F 68.0 °F 88% 30.22 in 10.0 mi Calm Calm - N/A   Clear
10:33 AM 71.6 °F 69.8 °F 94% 30.22 in 10.0 mi Calm Calm - N/A   Mostly Cloudy
10:53 AM 73.4 °F 71.6 °F 94% 30.22 in 10.0 mi Calm Calm - N/A   Mostly Cloudy
11:13 AM 73.4 °F 71.6 °F 94% 30.22 in 10.0 mi Calm Calm - N/A   Scattered Clouds
11:33 AM 73.4 °F 69.8 °F 88% 30.23 in 10.0 mi Calm Calm - N/A   Scattered Clouds
11:54 AM 73.4 °F 71.6 °F 94% 30.23 in 10.0 mi Calm Calm - N/A   Mostly Cloudy
12:13 PM 71.6 °F 68.0 °F 88% 30.22 in 10.0 mi Calm Calm - N/A Rain , Thunderstorm Light Thunderstorms and Rain
12:33 PM 69.8 °F 66.2 °F 88% 30.23 in 10.0 mi Calm Calm - N/A Rain Light Rain
12:53 PM 71.6 °F 69.8 °F 94% 30.22 in 10.0 mi Calm Calm - N/A   Scattered Clouds
1:13 PM 75.2 °F 71.6 °F 89% 30.22 in 10.0 mi Calm Calm - N/A   Scattered Clouds
1:33 PM 75.2 °F 71.6 °F 89% 30.21 in 10.0 mi NW 3.5 mph - N/A   Clear
1:53 PM 77.0 °F 73.4 °F 89% 30.21 in 10.0 mi Calm Calm - N/A   Scattered Clouds
2:13 PM 77.0 °F 73.4 °F 89% 30.20 in 10.0 mi North 3.5 mph - N/A   Scattered Clouds
2:34 PM 78.8 °F 73.4 °F 83% 30.20 in 10.0 mi Calm Calm - N/A   Scattered Clouds
2:53 PM 78.8 °F 71.6 °F 78% 30.19 in 10.0 mi NNW 4.6 mph - N/A   Clear
3:13 PM 75.2 °F 68.0 °F 78% 30.19 in 10.0 mi Calm Calm - N/A   Clear
3:33 PM 75.2 °F 66.2 °F 73% 30.19 in 10.0 mi NNW 3.5 mph - N/A   Scattered Clouds
3:53 PM 75.2 °F 68.0 °F 78% 30.19 in 10.0 mi NW 5.8 mph - N/A   Scattered Clouds
4:13 PM 75.2 °F 68.0 °F 78% 30.18 in 10.0 mi NW 3.5 mph - N/A   Mostly Cloudy
4:33 PM 77.0 °F 68.0 °F 74% 30.18 in 10.0 mi Calm Calm - N/A   Overcast
4:53 PM 75.2 °F 66.2 °F 73% 30.17 in 10.0 mi NNW 4.6 mph - N/A   Mostly Cloudy
5:13 PM 75.2 °F 66.2 °F 73% 30.17 in 10.0 mi Calm Calm - N/A   Scattered Clouds
5:34 PM 75.2 °F 66.2 °F 73% 30.17 in 10.0 mi Calm Calm - N/A   Scattered Clouds
5:53 PM 75.2 °F 66.2 °F 73% 30.16 in 10.0 mi Calm Calm - N/A   Scattered Clouds
6:13 PM 75.2 °F 66.2 °F 73% 30.16 in 10.0 mi Calm Calm - N/A   Scattered Clouds
6:33 PM 73.4 °F 66.2 °F 78% 30.16 in 10.0 mi Calm Calm - N/A Rain Light Rain
6:53 PM 73.4 °F 66.2 °F 78% 30.15 in 10.0 mi Calm Calm - N/A   Mostly Cloudy
7:13 PM 73.4 °F 68.0 °F 83% 30.14 in 10.0 mi Calm Calm - N/A   Scattered Clouds
7:33 PM 73.4 °F 66.2 °F 78% 30.14 in 10.0 mi Calm Calm - N/A   Mostly Cloudy
7:53 PM 71.6 °F 64.4 °F 78% 30.14 in 10.0 mi Calm Calm - N/A   Mostly Cloudy
8:13 PM 69.8 °F 64.4 °F 83% 30.14 in 10.0 mi Calm Calm - N/A   Scattered Clouds
8:33 PM 69.8 °F 64.4 °F 83% 30.14 in 10.0 mi Calm Calm - N/A   Mostly Cloudy
8:53 PM 69.8 °F 64.4 °F 83% 30.14 in 10.0 mi North 3.5 mph - N/A   Mostly Cloudy
9:13 PM 68.0 °F 60.8 °F 78% 30.14 in 10.0 mi Calm Calm - N/A   Scattered Clouds
9:33 PM 66.2 °F 60.8 °F 83% 30.15 in 10.0 mi Calm Calm - N/A   Mostly Cloudy
9:53 PM 66.2 °F 60.8 °F 83% 30.15 in 10.0 mi Calm Calm - N/A   Mostly Cloudy
10:13 PM 64.4 °F 60.8 °F 88% 30.15 in 10.0 mi Calm Calm - N/A   Scattered Clouds
10:33 PM 62.6 °F 60.8 °F 94% 30.14 in 10.0 mi Calm Calm - N/A   Scattered Clouds
10:54 PM 62.6 °F 59.0 °F 88% 30.14 in 10.0 mi Calm Calm - N/A   Scattered Clouds
11:14 PM 62.6 °F 59.0 °F 88% 30.14 in 10.0 mi Calm Calm - N/A   Mostly Cloudy
11:33 PM 60.8 °F 59.0 °F 94% 30.14 in 10.0 mi Calm Calm - N/A   Mostly Cloudy
11:53 PM 60.8 °F 59.0 °F 94% 30.15 in 10.0 mi Calm Calm - N/A   Overcast